[[{"header":{"parameterUnit":"m.s-1","parameterCategory":1,"la1":30.2991,"la2":30.254,"lo1":-89.0895,"lo2":-89.0444,"dy":0.0017,"dx":0.0017,"nx":28,"ny":28,"refTime":"2024-08-12T09:00:00:Z","depth":0,"parameterNumber":2,"parameterNumberName":"U-component_of_WINDS"},"data":[0,0,0,0,0,0,0,0,0,0,0,0,0,0,0,0,0,0,0,0,0,0,0,0,0,0,0,0,0,0,0,0,0,0,0,0,0,0,0,0,0,0,0,0,0,0,0,0,0,0,0,0,0,0,0,0,0,0,2.8368,2.8369,0,2.8456,2.8457,2.8458,2.8429,2.8427,2.8426,2.8424,2.8512,2.8516,2.852,0,0,0,0,0,0,0,0,0,0,0,0,0,2.8176,2.8179,2.8368,2.8369,2.837,2.8456,2.8457,2.8458,2.843,2.8427,2.8425,2.8423,2.8511,2.8516,2.8521,0,0,0,0,0,0,0,0,0,0,0,0,0,2.8261,2.8181,2.8368,2.8367,2.8367,2.8456,2.8457,2.8458,2.843,2.8427,2.8424,2.8422,2.8509,2.8515,2.8522,2.8616,0,0,2.854,2.8543,0,0,0,0,0,0,0,0,2.8256,2.8268,2.8366,2.8367,2.8368,2.8429,2.8422,2.8511,2.8431,2.8406,2.8424,2.842,2.8487,2.8495,2.8517,2.862,2.8624,2.8541,2.8545,2.8547,2.8549,0,0,0,0,0,0,0,2.825,2.8264,2.8403,2.8367,2.8368,2.8361,2.837,2.8438,2.8461,2.8408,2.8406,2.8417,2.8487,2.8511,2.8519,2.8626,2.8541,2.8546,2.855,2.8553,2.8811,2.8814,0,0,0,0,0,0,2.8244,2.8259,2.84,2.8405,2.8304,2.8367,2.8377,2.8412,2.846,2.8465,2.8419,2.8415,2.8502,2.8512,2.8522,2.8636,2.8547,2.8553,2.8557,2.8808,2.8812,2.8816,0,0,0,0,0,0,2.824,2.8257,2.8397,2.8332,2.8349,2.8373,2.8413,2.8415,2.844,2.8469,2.8473,2.844,2.85,2.8513,2.8593,2.8639,2.8556,2.8562,2.8805,2.8809,2.8814,2.8866,0,0,0,0,0,0,2.8234,2.8255,2.8292,2.8333,2.8353,2.8466,2.8416,2.8419,2.8451,2.8446,2.849,2.8494,2.8499,2.8584,2.8599,2.8646,2.8566,2.88,2.8807,2.8812,2.886,2.8871,2.8881,0,0,0,0,0,2.8228,2.8302,2.8294,2.8311,2.8399,2.8469,2.848,2.8485,2.8454,2.8491,2.851,2.8493,2.8632,2.8593,2.861,2.8659,2.8798,2.8805,2.8812,2.8855,2.8869,2.8881,0,0,0,0,0,0,2.8265,2.8308,2.8298,2.8389,2.8426,2.8464,2.851,2.85,2.8546,2.854,2.8543,2.8553,2.8635,2.8655,2.8611,2.8753,2.871,2.8721,2.8737,2.8751,2.8762,2.8755,2.8571,0,0,0,0,0,2.8284,2.8338,2.8372,2.8449,2.8468,2.8486,2.8517,2.8517,2.8555,2.8571,2.8595,2.8633,2.8685,2.8719,2.8769,2.8863,2.8872,2.8905,2.8916,2.8925,2.8934,2.8985,2.9001,2.8839,2.8839,2.8839,0,0,2.8323,2.8353,2.8387,2.8457,2.8485,2.8541,2.8499,2.856,2.8601,2.858,2.8657,2.8676,2.8718,2.8806,2.8846,2.8825,2.8981,2.8934,2.8941,2.8945,2.8994,2.901,2.9023,2.8844,2.8843,2.8842,0,0,2.8423,2.8452,2.8518,2.8548,2.8592,2.8604,2.862,2.8661,2.8673,2.8751,2.8736,2.8785,2.8875,2.8906,2.8933,2.9046,2.9032,2.9062,2.9118,2.9169,2.9181,2.9193,2.9233,2.9247,2.9071,2.9071,2.9072,0,2.8466,2.855,2.8554,2.8616,2.8647,2.8632,2.8699,2.8728,2.8786,2.8808,2.8784,2.8897,2.8924,2.9018,2.9046,2.9069,2.9087,2.9057,2.9179,2.9191,2.9201,2.9239,2.9255,2.9075,2.9074,2.9074,2.9074,0,2.8601,2.8659,2.8708,2.8764,2.8801,2.8866,2.888,2.8917,2.8915,2.8929,2.9008,2.9041,2.9097,2.9119,2.9117,2.9214,2.92,2.9178,2.9134,2.922,2.9256,2.9271,2.908,2.9078,2.9077,2.9077,0,0,2.8726,2.8785,2.8803,2.8828,2.8877,2.8921,2.8986,2.9041,2.9072,2.9113,2.9167,2.9244,2.9224,2.9255,2.9257,2.9301,2.9388,2.9273,2.9274,2.9293,2.9497,2.9513,2.953,2.938,2.9383,2.9385,2.9493,0,2.8829,2.8942,2.8948,2.9051,2.9105,2.9091,2.9147,2.9182,2.9198,2.9246,2.9263,2.9317,2.9287,2.9306,2.9349,2.9369,2.9429,2.9361,2.9429,2.9432,2.9419,2.9549,2.9566,2.9667,2.9508,2.951,2.9512,0,2.8965,2.9011,2.9119,2.916,2.9182,2.9232,2.9284,2.933,2.937,2.9378,2.9414,2.9409,2.9475,2.943,2.9521,2.9475,2.9503,2.9517,2.9521,2.9527,2.9476,2.9558,2.9699,2.9714,2.9534,2.9532,2.9531,0,2.9045,2.9134,2.921,2.9232,2.9282,2.9318,2.934,2.9377,2.941,2.9456,2.9477,2.9529,2.9558,2.9598,2.9608,2.9574,2.9699,2.9655,2.9707,2.9707,2.9733,2.9731,2.988,2.9753,2.9753,2.9752,2.9752,0,2.916,2.9227,2.9246,2.9293,2.9367,2.9374,2.9447,2.9467,2.9501,2.9551,2.9543,2.959,2.9601,2.965,2.9658,2.9732,2.9745,2.9754,2.9755,2.9754,2.9753,2.9772,2.9766,2.9756,2.9755,2.9755,2.9754,0,2.9262,2.9278,2.936,2.94,2.9412,2.9465,2.95,2.9545,2.956,2.9624,2.9639,2.9662,2.972,2.9735,2.9804,2.9809,2.9896,2.9891,2.9883,2.9882,2.9934,2.9929,3.01,3.0123,2.9981,2.9982,2.9984,0,2.9334,2.9385,2.9431,2.9464,2.9488,2.9542,2.9576,2.9585,2.9621,2.9671,2.971,2.9767,2.9813,2.9906,2.993,2.9982,2.9978,3.0035,2.9986,2.9984,2.9979,2.9975,2.998,3.0044,3.0045,3.0046,3.0047,0,2.946,2.9465,2.9515,2.9567,2.9608,2.965,2.969,2.9717,2.9732,2.9772,2.9832,2.9868,2.9939,2.9996,3.0049,3.0072,3.0062,3.0063,3.0078,3.0077,3.007,3.0074,2.9908,3.0058,3.0057,3.0056,3.0056,3.0055,2.9549,2.9593,2.9633,2.9689,2.972,2.9757,2.9802,2.9822,2.9872,2.9931,2.9933,2.9998,3.0037,3.0108,3.0134,3.0185,3.0168,3.0189,3.0195,3.02,3.0204,3.0063,3.0195,3.0195,3.0194,3.0194,3.0194,0,2.9674,2.9699,2.975,2.9806,2.985,2.9838,2.9882,2.9919,2.9976,3.0014,3.006,3.0128,3.0184,3.0211,3.0266,3.0302,3.0299,3.0316,3.0313,3.0318,3.0217,3.0198,3.0317,3.0317,3.0317,3.0317,3.0317,3.0317,2.9744,2.9819,2.983,2.992,2.9945,3.0009,3.0035,3.0069,3.01,3.0177,3.0223,3.0241,3.0275,3.0332,3.0383,3.0389,3.041,3.0429,3.0434,3.0338,3.0325,3.0313,3.0296,3.0434,3.0434,3.0531,3.0532,3.0532]},{"header":{"parameterUnit":"m.s-1","parameterCategory":1,"la1":30.2991,"la2":30.254,"lo1":-89.0895,"lo2":-89.0444,"dy":0.0017,"dx":0.0017,"nx":28,"ny":28,"refTime":"2024-08-12T09:00:00:Z","depth":0,"parameterNumber":3,"parameterNumberName":"V-component_of_WINDS"},"data":[0,0,0,0,0,0,0,0,0,0,0,0,0,0,0,0,0,0,0,0,0,0,0,0,0,0,0,0,0,0,0,0,0,0,0,0,0,0,0,0,0,0,0,0,0,0,0,0,0,0,0,0,0,0,0,0,0,0,-1.524,-1.5241,0,-1.5287,-1.5288,-1.5288,-1.527,-1.5269,-1.5268,-1.5267,-1.5315,-1.5318,-1.532,0,0,0,0,0,0,0,0,0,0,0,0,0,-1.5136,-1.5138,-1.524,-1.5241,-1.5241,-1.5287,-1.5288,-1.5288,-1.527,-1.5269,-1.5268,-1.5267,-1.5315,-1.5317,-1.532,0,0,0,0,0,0,0,0,0,0,0,0,0,-1.5182,-1.5138,-1.524,-1.5238,-1.5238,-1.5287,-1.5288,-1.5289,-1.5271,-1.5269,-1.5267,-1.5266,-1.5314,-1.5317,-1.532,-1.5374,0,0,-1.5331,-1.5332,0,0,0,0,0,0,0,0,-1.5179,-1.5186,-1.5238,-1.5238,-1.5239,-1.5271,-1.5269,-1.5317,-1.5271,-1.5258,-1.5267,-1.5265,-1.5302,-1.5306,-1.5319,-1.5376,-1.5378,-1.5331,-1.5333,-1.5335,-1.5336,0,0,0,0,0,0,0,-1.5176,-1.5184,-1.5259,-1.5238,-1.5239,-1.5235,-1.524,-1.5278,-1.5289,-1.5259,-1.5258,-1.5264,-1.5302,-1.5315,-1.532,-1.5379,-1.5331,-1.5334,-1.5336,-1.5338,-1.5484,-1.5486,0,0,0,0,0,0,-1.5173,-1.5181,-1.5257,-1.526,-1.5204,-1.5238,-1.5243,-1.5262,-1.5288,-1.5291,-1.5265,-1.5263,-1.531,-1.5316,-1.5321,-1.5386,-1.5335,-1.5338,-1.534,-1.5482,-1.5484,-1.5486,0,0,0,0,0,0,-1.517,-1.518,-1.5255,-1.522,-1.523,-1.5242,-1.5263,-1.5264,-1.5278,-1.5293,-1.5295,-1.5277,-1.5309,-1.5316,-1.5361,-1.5388,-1.5339,-1.5343,-1.548,-1.5483,-1.5485,-1.5517,0,0,0,0,0,0,-1.5168,-1.5179,-1.5199,-1.5221,-1.5232,-1.5295,-1.5265,-1.5266,-1.5284,-1.5281,-1.5304,-1.5307,-1.5308,-1.5356,-1.5365,-1.5392,-1.5345,-1.5478,-1.5481,-1.5485,-1.5513,-1.552,-1.5526,0,0,0,0,0,-1.5164,-1.5206,-1.52,-1.521,-1.5257,-1.5296,-1.5302,-1.5304,-1.5286,-1.5306,-1.5316,-1.5306,-1.5383,-1.5361,-1.537,-1.5399,-1.5476,-1.548,-1.5484,-1.551,-1.5519,-1.5526,0,0,0,0,0,0,-1.5187,-1.5209,-1.5203,-1.5253,-1.5273,-1.5293,-1.5319,-1.5312,-1.5337,-1.5334,-1.5335,-1.534,-1.5386,-1.5397,-1.5372,-1.5452,-1.5427,-1.5433,-1.5444,-1.5452,-1.5458,-1.5454,-1.5348,0,0,0,0,0,-1.5198,-1.5228,-1.5245,-1.5288,-1.5298,-1.5307,-1.5324,-1.5323,-1.5344,-1.5352,-1.5365,-1.5386,-1.5415,-1.5434,-1.5461,-1.5515,-1.552,-1.5539,-1.5545,-1.555,-1.5556,-1.5585,-1.5594,-1.55,-1.55,-1.55,0,0,-1.5221,-1.5237,-1.5255,-1.5293,-1.5308,-1.5339,-1.5314,-1.5348,-1.5371,-1.5357,-1.54,-1.5411,-1.5434,-1.5483,-1.5506,-1.5494,-1.5583,-1.5556,-1.5559,-1.5562,-1.559,-1.5599,-1.5607,-1.5503,-1.5502,-1.5502,0,0,-1.5279,-1.5294,-1.5331,-1.5347,-1.537,-1.5376,-1.5385,-1.5406,-1.5413,-1.5456,-1.5447,-1.5474,-1.5524,-1.5541,-1.5556,-1.5621,-1.5613,-1.563,-1.5663,-1.5692,-1.5699,-1.5706,-1.573,-1.5738,-1.5636,-1.5636,-1.5636,0,-1.5305,-1.5351,-1.5351,-1.5386,-1.5403,-1.5392,-1.5431,-1.5446,-1.5477,-1.5489,-1.5475,-1.5538,-1.5553,-1.5606,-1.5622,-1.5635,-1.5645,-1.5628,-1.5698,-1.5705,-1.5711,-1.5734,-1.5742,-1.5638,-1.5637,-1.5637,-1.5637,0,-1.5381,-1.5413,-1.5441,-1.5472,-1.5492,-1.5528,-1.5534,-1.5555,-1.5553,-1.556,-1.5605,-1.5622,-1.5653,-1.5666,-1.5664,-1.5719,-1.5711,-1.5698,-1.5672,-1.5722,-1.5743,-1.5752,-1.564,-1.564,-1.5639,-1.5639,0,0,-1.5455,-1.5486,-1.5496,-1.551,-1.5535,-1.556,-1.5596,-1.5626,-1.5644,-1.5666,-1.5697,-1.574,-1.5728,-1.5745,-1.5745,-1.577,-1.5821,-1.5754,-1.5754,-1.5766,-1.5884,-1.5894,-1.5904,-1.5816,-1.5817,-1.5819,-1.5882,0,-1.5515,-1.5578,-1.558,-1.5637,-1.5667,-1.5658,-1.5689,-1.5708,-1.5716,-1.5743,-1.5752,-1.5783,-1.5764,-1.5775,-1.5799,-1.581,-1.5845,-1.5805,-1.5844,-1.5846,-1.5839,-1.5915,-1.5926,-1.5985,-1.589,-1.5892,-1.5893,0,-1.5593,-1.5618,-1.5679,-1.57,-1.5713,-1.5741,-1.5769,-1.5795,-1.5817,-1.5821,-1.584,-1.5837,-1.5874,-1.5848,-1.5899,-1.5872,-1.5888,-1.5896,-1.5898,-1.5902,-1.5872,-1.5921,-1.6003,-1.6013,-1.5906,-1.5905,-1.5904,0,-1.5641,-1.5689,-1.5732,-1.5744,-1.577,-1.5791,-1.5802,-1.5823,-1.5841,-1.5866,-1.5878,-1.5907,-1.5923,-1.5946,-1.595,-1.593,-1.6002,-1.5976,-1.6007,-1.6007,-1.6022,-1.6021,-1.6109,-1.6033,-1.6032,-1.6032,-1.6032,0,-1.5708,-1.5745,-1.5754,-1.578,-1.5822,-1.5824,-1.5866,-1.5877,-1.5895,-1.5923,-1.5917,-1.5944,-1.5948,-1.5976,-1.598,-1.6023,-1.603,-1.6034,-1.6035,-1.6035,-1.6035,-1.6046,-1.6042,-1.6035,-1.6034,-1.6034,-1.6033,0,-1.5768,-1.5776,-1.5822,-1.5843,-1.5849,-1.5879,-1.5897,-1.5923,-1.593,-1.5966,-1.5975,-1.5987,-1.602,-1.6026,-1.6065,-1.6068,-1.6119,-1.6115,-1.6111,-1.6111,-1.6142,-1.6139,-1.624,-1.6253,-1.6168,-1.6169,-1.6169,0,-1.5811,-1.5839,-1.5864,-1.5882,-1.5895,-1.5925,-1.5944,-1.5947,-1.5967,-1.5994,-1.6017,-1.6049,-1.6075,-1.6128,-1.614,-1.617,-1.6167,-1.62,-1.6172,-1.6171,-1.6168,-1.6166,-1.617,-1.6206,-1.6207,-1.6208,-1.6208,0,-1.5885,-1.5887,-1.5915,-1.5944,-1.5966,-1.5989,-1.6011,-1.6026,-1.6033,-1.6056,-1.6089,-1.6109,-1.6149,-1.6181,-1.6211,-1.6224,-1.6217,-1.6217,-1.6226,-1.6227,-1.6223,-1.6226,-1.6127,-1.6215,-1.6214,-1.6214,-1.6213,-1.6213,-1.5938,-1.5963,-1.5985,-1.6015,-1.6032,-1.6053,-1.6078,-1.6089,-1.6116,-1.6149,-1.6149,-1.6186,-1.6208,-1.6247,-1.6262,-1.6291,-1.6281,-1.6293,-1.6297,-1.63,-1.6303,-1.6219,-1.6296,-1.6296,-1.6296,-1.6296,-1.6296,0,-1.6013,-1.6026,-1.6054,-1.6085,-1.6109,-1.6101,-1.6125,-1.6146,-1.6178,-1.6199,-1.6225,-1.6263,-1.6295,-1.631,-1.6341,-1.6361,-1.6359,-1.6369,-1.6368,-1.6371,-1.631,-1.6299,-1.637,-1.637,-1.637,-1.637,-1.637,-1.637,-1.6054,-1.6097,-1.6102,-1.6153,-1.6166,-1.6202,-1.6216,-1.6235,-1.6252,-1.6295,-1.6321,-1.6331,-1.6349,-1.6382,-1.6411,-1.6414,-1.6426,-1.6438,-1.644,-1.6383,-1.6375,-1.6368,-1.6358,-1.644,-1.644,-1.6499,-1.6499,-1.65]}]]